www.pogodaiklimat.ru

Погода и климат >> Архив погоды >> Россия >> Приморский край >> Владивосток


АРХИВ ПОГОДЫ в Владивостоке

Время (UTC), дата Ветер
(напр.,м/с)
 
Видим.   Явления Облачность Т
(С)
Тd
(С)
f
(%)
Тe
(С)
Тes
(С)
Комфортность P
(гПа)
Po
(гПа)
Тmin
(С)
Tmax
(С)
R
(мм)
R24
(мм)
S
(см)
09 20.05 ЮВ 7-10
{11}
20 км {туман} 10/4 600 м
[Sc diur, vesp Ac lent]
+11.2 +10.0 92 +8 +8 по сезону 993.4 971.3 +12.6 26
12 20.05 Ю 7
{11}
20 км {туман} 6/6 600 м
[Sc]
+9.7 +9.2 97 +6 +6 по сезону 995.6 973.4
15 20.05 ЮЗ 5 20 км ясно +10.3 +6.9 79 +7 +7 по сезону 995.7 973.5
18 20.05 Ю 5 20 км ясно +10.9 +4.7 66 +8 +8 по сезону 995.5 973.3
21 20.05 Ю 2
{12}
50 км 3/0
[Cc]
+11.4 +4.8 64 +10 +11 тепло 995.9 973.7 +9.0
00 21.05 ЮВ 6 50 км 8/0
[Ac cast Cc]
+12.7 +7.4 70 +10 +13 по сезону 995.2 973.2
03 21.05 ЮВ 7-10
{10}
50 км 4/1 1000 м
[Cu hum Ac cast Cc]
+15.5 +8.1 61 +14 +18 тепло 994.1 972.4
06 21.05 Ю 6
{11}
50 км 8/3 600 м
[Sc Ac lent]
+15.3 +7.8 61 +14 +15 тепло 993.7 971.9
09 21.05 З 4
{14}
50 км в посл. час ливневой дождь 9/8 600 м
[Cb calv Ac lent]
+13.3 +5.2 58 +12 +12 тепло 995.7 973.7 +15.8 0.0
12 21.05 ЮЗ 4 50 км {ливн. осадки} 4/4 600 м
[Cb calv]
+13.5 +4.9 56 +12 +12 тепло 996.8 974.8
15 21.05 ЮЗ 6 50 км 3/3 600 м
[Sc]
+12.2 +6.3 67 +10 +10 тепло 997.1 975.0
18 21.05 ЮЗ 4 50 км 3/3 600 м
[Sc]
+11.6 +5.9 68 +10 +10 тепло 996.6 974.5
21 21.05 З 4 50 км слаб. дождь 10/0 600 м
[As op]
+11.5 +6.0 69 +9 +10 по сезону 996.8 974.6 +11.3 0.3
00 22.05 ЮВ 4 50 км {дождь} 9/9 600 м
[Sc]
+11.6 +8.6 82 +9 +10 по сезону 997.5 975.4
03 22.05 ЮВ 6 50 км 6/3 1000 м
[Cu hum Ac cast Cc]
+15.7 +7.5 58 +14 +19 тепло 997.4 975.6
06 22.05 Ю 4 50 км слаб. ливневой дождь 9/9 600 м
[Cb cap]
+15.4 +7.7 60 +15 +15 тепло 997.5 975.6
09 22.05 С 4
{10}
50 км {ливн. осадки} 8/8 600 м
[Cb calv]
+14.3 +6.1 58 +13 +13 тепло 998.9 976.9 +16.9 0.0
12 22.05 С 3 50 км {ливн. осадки} 9/9 600 м
[Sc]
+14.0 +6.0 59 +13 +13 тепло 1001.7 979.6
15 22.05 Ю 2 50 км 10/10 600 м
[Sc]
+12.4 +8.4 77 +12 +12 тепло 1002.8 980.6
18 22.05 Ю 4 10 км слаб. дождь 10/0
[As op]
+12.0 +7.0 71 +10 +10 тепло 1002.9 980.7
21 22.05 ЮВ 1 50 км {дождь} 8/3 600 м
[Sc Ac cast]
+11.5 +7.6 77 +11 +12 тепло 1003.7 981.4 +11.3 0.8
00 23.05 С 5 50 км {дождь} 8/8 600 м
[Sc]
+11.9 +9.1 83 +9 +11 по сезону 1004.8 982.5 +10.9
03 23.05 С 3 50 км 3/3 600 м
[Sc]
+17.4 +4.9 44 +17 +29 опасность
простуды
1004.9 983.0
06 23.05 С 3
{10}
50 км 3/3 600 м
[Cu hum]
+20.0 +4.3 36 +21 +28 комфорт 1004.6 982.9
09 23.05 Ю 2 50 км 3/0
[Ac cast]
+19.8 +4.8 37 +21 +22 комфорт 1004.6 982.9 +21.2
12 23.05 З 2 50 км ясно +16.0 +5.6 50 +16 +16 тепло 1006.7 984.7
15 23.05 Ю 3 50 км ясно +14.6 +5.8 56 +14 +14 тепло 1007.1 985.0
18 23.05 ЮВ 4 50 км ясно +12.0 +7.9 76 +10 +10 тепло 1008.3 986.0
21 23.05 ЮВ 4 50 км 4/0
[Ac lent Cc]
+12.6 +7.3 70 +11 +11 тепло 1008.6 986.3 +11.6
00 24.05 Ю 4 50 км ясно +16.6 +8.7 60 +16 +24 тепло 1009.0 987.0
03 24.05 Ю 7
{11}
50 км 8/0
[Ac lent Cc]
+17.2 +7.4 52 +16 +19 тепло 1008.3 986.4
06 24.05 Ю 9-12
{12}
50 км 8/0
[Ac lent Cc]
+16.0 +8.1 59 +14 +15 тепло 1007.3 985.3
09 24.05 Ю 7
{12}
50 км 8/4 600 м
[Sc Ac lent]
+13.2 +9.3 77 +11 +11 по сезону 1007.0 984.7 +17.4
12 24.05 ЮВ 8-10
{12}
50 км 4/4 600 м
[Sc]
+12.2 +9.7 85 +9 +9 по сезону 1007.1 984.8
15 24.05 ЮВ 8
{12}
50 км 4/4 600 м
[Sc]
+12.5 +10.6 88 +9 +9 по сезону 1006.5 984.3
18 24.05 ЮВ 9-12
{13}
50 км 6/6 600 м
[Sc]
+12.6 +10.3 86 +9 +9 по сезону 1006.1 983.9
21 24.05 ЮВ 7
{12}
20 км 6/3 600 м
[Sc Ci fib]
+12.1 +10.9 92 +9 +9 по сезону 1006.9 984.6 +11.9
00 25.05 Ю 8-11
{11}
20 км 9/4 600 м
[Sc Cs]
+14.8 +11.9 83 +13 +14 тепло 1007.5 985.4
03 25.05 ЮВ 7
{11}
50 км 8/3 600 м
[Sc diur, vesp Ci fib]
+17.5 +12.3 72 +17 +20 тепло 1007.7 985.8
06 25.05 ЮВ 9-11
{11}
50 км 9/6 600 м
[Sc Cc]
+20.1 +11.2 57 +21 +21 комфорт 1006.7 985.0
09 25.05 ЮВ 8
{11}
50 км 9/9 600 м
[Sc]
+17.2 +11.0 67 +16 +16 тепло 1007.1 985.2 +21.3
12 25.05 ЮВ 7 50 км 4/0
[Ac lent]
+16.3 +10.2 67 +15 +15 тепло 1008.4 986.4
15 25.05 ЮВ 6 50 км ясно +17.7 +10.0 61 +17 +17 тепло 1008.1 986.2
18 25.05 ЮВ 4 50 км ясно +15.9 +11.1 73 +15 +15 тепло 1008.8 986.7
21 25.05 СВ 1 20 км ясно +15.7 +11.2 75 +16 +18 тепло 1009.5 987.4 +15.1
00 26.05 СЗ 4 50 км ясно +24.9 +7.6 33 +25 +33 комфорт 1009.3 987.9
03 26.05 Ю 4 50 км ясно +27.6 +9.0 31 +28 +41 жарко 1008.3 987.1
06 26.05 ЮВ 6 50 км 10/0
[Cs]
+23.3 +9.9 43 +25 +29 комфорт 1007.1 985.6
09 26.05 ЮВ 6
{11}
50 км 4/0
[Cs]
+16.1 +10.2 68 +15 +16 тепло 1007.2 985.1 +27.7
12 26.05 ЮВ 10-13
{13}
50 км 4/0
[Ac lent]
+14.4 +9.7 73 +12 +12 тепло 1008.0 985.8
15 26.05 Ю 10-14
{16}
50 км ясно +15.6 +8.3 62 +14 +14 тепло 1007.0 984.9
18 26.05 ЮВ 9-10
{14}
50 км 4/4 600 м
[Sc]
+14.4 +9.1 70 +12 +12 тепло 1006.1 984.0
21 26.05 ЮВ 9-12
{13}
20 км 9/0
[Ac lent Cc]
+13.3 +10.7 84 +10 +10 по сезону 1005.8 983.6 +13.1
00 27.05 ЮВ 12-16
{16}
20 км 9/0
[Cc]
+16.6 +12.2 75 +15 +15 тепло 1004.5 982.6
03 27.05 ЮВ 11-15
{19}
20 км 9/0
[Ac cast Cc]
+16.1 +11.0 72 +14 +14 тепло 1003.5 981.6
06 27.05 ЮВ 15-21
{24}
20 км слаб. дождь 10/0 600 м
[As op]
+11.2 +10.0 92 +6 +6 холодно 1002.4 980.1

 

Местоположение метеостанции Владивосток (Приморский край, Россия): широта 43.12 долгота 131.90 высота над уровнем моря 188 м.

В архиве по умолчанию представлена погода в Владивостоке за последнюю неделю. Архивные данные за месяц целиком и за предыдущие месяцы, начиная с января 2011 года, Вы можете получить, выбрав интересующий диапазон дат из раскрывающегося списка и нажав кнопку "Ввод!".


*Определитесь, кто Вы:
робот инопланетянин человек

Внимание! Время в таблицах - всемирное. Для получения местного времени необходимо прибавить поправку, которая равна 10 ч.

Смотрите также архив погоды в соседних городах и на ближайших метеорологических станциях:

Погода на Мысе Назимова (Приморский край, Россия) (8 км)
Погода в Барабаше (Приморский край, Россия) (42 км)
Погода в Многоудобном (Приморский край, Россия) (60 км)
Погода в Находке (Приморский край, Россия) (81 км)
Погода в Гамове (Приморский край, Россия) (84 км)
Погода в Тимирязевском (Приморский край, Россия) (85 км)
Погода в Партизанске (Приморский край, Россия) (89 км)
Погода в Посьете (Приморский край, Россия) (104 км)
Погода в Полтавке (Приморский край, Россия) (112 км)
Погода в Анучино (Приморский край, Россия) (130 км)

Пояснения к столбцам:

Ветер - указаны скорость ветра в м/с - средняя за 10 мин, порывы в срок и между сроками (в фигурных скобках) и направление, откуда дует ветер: С - северный, СВ - северо-восточный, В - восточный, ЮВ - юго-восточный, Ю - южный, ЮЗ - юго-западный, З - западный, СЗ - северо-западный.
Видимость - горизонтальная дальность видимости в метрах или километрах. При видимости от 1 до 10 км при отсутствии осадков обычно наблюдается дымка, при ухудшении видимости до 1 км и менее - туман. В сухую погоду видимость может ухудшаться дымом, пылью или мглою.
Явления - указаны атмосферные явления, наблюдавшиеся в срок или в последний час перед сроком; фигурными скобками обозначены явления, наблюдавшиеся между сроками (за 1-3 часа до срока); квадратными скобками обозначены град или гололедные отложения с указанием их диаметра в мм.
Облачность - указаны через наклонную черту общая и нижняя облачность в баллах и высота нижней границы облаков в метрах; квадратными скобками обозначены формы облаков: Ci - перистые, Cs - перисто-слоистые, Cc - перисто-кучевые, Ac - высококучевые, As - высокослоистые, Sc - слоисто-кучевые, Ns - слоисто-дождевые, Cu - кучевые, Cb - кучево-дождевые. Подробнее классификацию облаков см. в Атласе облаков (PDF).
T - Температура воздуха - температура, измеренная на высоте 2 м над землей.
Td - Температура точки росы - температура, при понижении до которой содержащийся в воздухе водяной пар достигнет насыщения.
f - Относительная влажность воздуха - влажноcть воздуха, измеренная на высоте 2 м над землей.
Te - Эффективная температура - температура, которую ощущает одетый по сезону человек в тени. Характеристика душности погоды. При расчете учитывается влияние влажности воздуха и скорости ветра на теплоощущения человека.
Tes - Эффективная температура на солнце - температура, которую ощущает человек, с поправкой на солнечный нагрев. Характеристика знойности погоды. Зависит от высоты солнца над горизонтом, облачности и скорости ветра. Ночью, в пасмурную погоду, а также при ветре 12 м/с и более поправка равна нулю.
P - Атмосферное давление - приведенное к уровню моря атмосферное давление.
Po - Атмосферное давление - измеренное на уровне метеостанции атмосферное давление.
Tmin - Минимальная температура - минимум температуры воздуха на высоте 2 м над землей.
Tmax - Максимальная температура - максимум температуры воздуха на высоте 2 м над землей.
R - Количество осадков - Количество выпавших осадков за период времени, мм. При наведении курсора мыши на число - период времени, за который выпало указанное количество осадков.
R24 - Количество осадков - Количество выпавших осадков за 24 часа, мм.
S - Снежный покров - Высота снежного покрова, см. При наведении курсора мыши на число - состояние снежного покрова и степень покрытия местности в баллах.